Presure
106 154 83 83 83 86 95 95 131 184 144 111 95 136 96 108 137 195 184 213 219 194 215 212 208 209 208 205 204 204 205 205 203 196 198 202 190 170 205 212 188 174 176
91 124 157 130 95 84 133 167 200 97 82 111 82 104 95 168 110 111 210 206 205 196 191 187 193 194 185 195 194 192 195 198 194 195 191 186 183 185 190 191 184 157 96
87 94 102 95 126 201 86 109 105 90 83 103 82 103 95 107 107 111 164 204 193 184 173 190 187 180 183 193 186 184 180 182 188 185 183 185 190 193 201 185 195 187 188
130 119 164 110 121 107 96 111 121 83 82 108 99 102 156 100 224 198 166 202 199 183 178 192 189 186 189 180 195 174 178 182 178 173 173 175 180 179 180 184 181 197 185
133 123 121 118 114 111 121 123 112 89 108 106 106 118 161 124 196 207 207 200 197 179 178 195 191 176 184 189 198 197 201 192 190 194 192 188 183 184 171 177 172 178 183
132 125 125 116 113 111 106 96 101 107 97 99 110 104 114 122 209 212 206 195 182 191 177 184 192 179 190 186 190 182 189 194 190 184 185 188 188 189 184 180 174 179 194
127 129 94 110 118 118 119 87 90 93 95 103 112 107 152 126 214 205 201 193 180 184 189 183 195 193 185 175 171 183 177 185 184 179 179 189 192 196 200 211 250 319 332
124 115 126 163 117 123 100 88 98 91 103 111 110 111 204 209 203 205 187 194 180 191 194 186 195 182 188 181 183 186 186 185 180 178 195 192 206 207 224 249 262 260 252
99 109 111 118 110 97 90 132 115 107 112 154 145 162 209 206 200 187 191 190 189 191 193 194 191 175 181 193 192 189 170 161 181 189 202 199 203 223 258 242 229 246 263
108 108 136 150 101 94 103 117 110 210 185 162 193 203 209 200 201 193 191 196 196 198 201 190 181 186 195 188 181 175 186 192 197 209 192 218 238 269 246 249 275 270 268
172 178 185 124 187 175 192 188 178 209 210 209 199 205 202 198 196 190 187 189 194 174 180 183 193 196 189 181 183 195 194 211 197 216 231 273 265 244 278 278 279 278 285
194 179 187 192 181 179 174 196 182 202 208 201 195 195 197 194 197 193 189 187 170 175 184 189 186 184 182 187 199 195 206 202 224 204 265 241 277 279 258 214 209 208 210
189 196 180 187 181 174 173 190 174 188 194 203 202 203 196 199 201 193 196 182 180 184 188 177 173 180 181 199 202 201 217 224 255 252 258 269 225 202 207 214 216 211 210
200 198 185 179 175 168 170 169 174 174 189 210 204 203 196 201 202 198 187 187 189 181 129 179 187 198 196 199 209 220 256 275 265 267 199 194 211 218 225 199 232 251 262
201 200 199 165 165 177 172 167 175 172 177 185 206 208 209 207 183 187 187 187 185 177 184 190 200 201 204 222 238 69 260 193 186 189 216 226 232 243 254 341 374 566 559
198 194 203 190 175 176 182 173 185 184 174 207 206 204 189 187 185 189 184 181 191 194 196 200 198 204 232 271 256 238 199 220 224 204 247 283 344 510 501 506 239 496 500
212 192 201 197 183 187 178 178 179 183 181 196 199 193 189 184 185 185 191 194 200 202 156 204 219 269 245 264 201 225 152 122 249 294 342 483 522 486 471 471 515 419 408
214 212 202 199 185 181 180 179 181 181 194 197 194 188 183 188 193 195 195 163 201 210 220 286 270 213 214 213 220 233 255 260 349 516 506 448 449 427 450 477 479 432 434
217 213 208 199 185 182 189 178 180 188 192 187 191 185 198 194 197 197 186 202 217 214 168 142 214 201 170 226 241 257 346 529 504 477 438 398 392 381 376 354 344 345 342
220 208 204 195 192 185 183 177 180 190 178 188 198 191 196 159 152 201 214 228 274 141 228 223 211 223 236 246 305 458 520 475 434 412 376 361 369 357 336 331 329 324 329
224 213 200 195 192 178 186 187 186 187 184 188 195 132 172 201 210 223 255 264 138 222 208 223 230 240 251 342 576 484 445 403 382 376 339 340 360 340 326 321 320 316 316
222 211 199 191 184 188 189 178 189 184 191 150 137 150 179 213 237 278 135 158 220 157 228 242 250 333 463 538 448 413 391 373 356 357 334 345 343 326 316 309 318 316 312
215 200 182 182 184 182 193 187 186 194 194 201 189 211 205 277 198 194 154 209 182 235 242 261 344 522 498 426 402 376 376 355 346 337 329 323 313 318 317 311 310 311 315
194 181 178 178 186 191 184 191 194 197 201 184 154 234 197 175 184 162 206 231 231 247 317 490 474 467 414 391 385 364 343 329 325 340 317 308 309 307 304 305 310 307 310
179 170 181 190 180 188 193 192 130 150 210 211 247 179 173 205 216 207 225 238 248 330 447 497 438 399 379 388 366 337 324 319 318 326 321 313 311 315 303 305 308 304 384
130 183 181 188 190 189 195 172 207 214 227 268 164 234 205 213 222 225 242 258 373 513 477 410 385 374 378 366 341 332 328 317 314 313 311 306 308 302 304 301 303 324 376
Wind_Speed
38 65 29 28 30 32 39 37 54 80 58 50 47 55 48 49 59 72 67 58 51 54 45 43 44 43 42 44 45 46 47 45 47 54 56 55 61 67 54 55 63 66 66
36 52 68 47 41 33 54 71 84 40 35 46 35 48 50 69 56 58 59 52 50 51 51 54 51 51 56 50 49 52 51 50 52 51 57 64 66 63 60 61 66 59 59
36 42 44 41 43 82 35 47 45 45 41 50 37 52 54 57 58 61 58 54 54 58 60 58 59 60 60 53 61 61 63 64 61 62 62 62 60 60 60 64 62 68 71
49 51 62 46 45 49 45 49 52 41 42 51 58 57 69 60 66 69 63 58 58 59 61 64 64 65 62 65 60 67 69 71 73 71 70 71 72 73 71 71 73 70 73
52 51 49 48 49 50 52 51 47 50 52 54 61 62 69 68 69 62 60 59 59 62 63 65 66 67 69 69 66 67 64 69 71 70 72 74 78 78 80 80 80 81 82
53 51 52 51 52 53 49 49 53 54 57 63 61 65 67 71 65 60 60 61 63 64 67 68 69 71 72 72 72 72 72 72 75 76 78 78 81 84 85 86 88 89 89
53 55 43 52 56 57 58 47 52 56 61 66 64 69 69 76 59 60 63 63 65 68 70 71 73 73 75 75 76 79 79 80 79 79 81 83 85 87 88 93 98 76 79
56 54 57 57 57 61 55 50 61 58 67 67 68 71 60 60 61 63 66 66 70 72 72 74 75 75 77 79 82 83 84 85 84 82 92 89 95 96 104 107 92 90 88
51 54 56 58 58 51 53 55 67 68 69 67 66 71 61 61 64 67 69 69 73 75 76 77 78 78 80 81 83 85 75 69 90 95 100 97 100 108 105 95 98 98 94
55 56 59 60 60 58 62 69 68 58 61 71 63 64 62 65 67 70 74 75 77 80 80 80 82 84 86 85 83 83 92 95 98 101 97 107 113 104 104 106 98 98 97
58 57 59 64 60 54 60 60 59 55 57 60 62 64 66 68 70 70 74 79 81 83 86 88 92 94 93 89 93 102 102 107 101 111 116 108 107 110 99 97 95 94 94
67 61 62 61 60 59 59 59 62 58 58 62 64 66 69 71 74 72 71 76 81 89 90 93 95 96 96 101 107 106 111 109 120 101 116 118 107 105 99 86 87 89 90
66 69 61 64 62 58 59 60 61 66 62 63 67 70 72 76 78 75 77 77 82 86 88 91 94 99 100 111 113 113 121 124 125 123 118 115 103 98 99 101 101 98 99
70 70 65 61 59 57 59 60 63 65 68 66 69 72 75 77 80 79 80 82 83 85 71 93 101 104 105 106 115 120 123 111 114 114 102 104 111 116 120 101 120 131 134
71 71 69 57 58 66 61 59 67 67 72 74 70 74 77 79 79 82 85 87 88 87 95 101 105 106 110 119 124 45 118 94 100 102 110 117 121 127 133 135 127 66 67
71 69 70 66 64 66 69 67 74 75 73 71 73 75 77 80 83 86 89 90 95 97 97 103 104 107 122 118 119 108 99 110 114 109 126 132 134 80 59 64 44 66 64
71 67 68 68 69 71 69 72 74 77 78 74 76 79 82 85 87 90 94 97 101 103 82 111 117 114 121 117 99 111 81 76 127 137 136 81 57 58 55 56 45 57 58
70 69 67 68 69 70 71 73 76 78 77 78 80 83 86 90 93 95 98 74 104 111 114 103 109 100 106 109 114 124 131 134 136 59 53 53 49 51 51 39 35 36 39
66 64 64 66 69 71 72 73 76 80 80 83 84 87 90 93 96 99 91 104 114 106 83 72 98 100 95 121 127 134 134 53 51 49 50 46 50 42 40 42 44 43 47
61 63 62 66 67 70 74 73 78 81 81 86 87 90 93 77 67 102 111 117 114 72 103 107 104 115 124 130 134 89 42 44 47 47 43 46 41 38 42 39 40 42 46
59 59 63 64 64 68 76 79 82 82 85 88 90 62 80 99 106 114 116 104 73 107 101 113 119 125 133 131 39 40 38 42 48 35 42 49 36 33 37 37 39 44 45
56 59 59 60 68 72 76 76 81 84 87 67 62 66 85 108 117 107 72 79 110 76 117 126 130 129 75 35 37 40 38 37 41 36 34 41 28 34 33 39 38 42 45
54 54 58 63 70 73 76 79 83 86 89 94 90 104 100 105 91 94 78 106 95 124 128 134 125 46 36 38 37 38 33 32 34 34 29 41 35 36 35 39 41 44 45
49 55 58 63 70 73 77 81 85 89 94 86 70 114 87 87 87 81 102 120 124 131 128 62 53 37 37 37 30 28 31 36 39 30 27 37 36 37 41 42 43 46 48
52 52 63 68 71 75 80 83 57 66 100 102 97 85 86 98 107 105 117 124 132 125 67 42 39 40 40 32 24 30 34 34 38 36 26 31 33 34 36 40 44 45 45
45 62 65 69 75 78 83 77 96 101 107 98 81 102 98 106 114 117 127 132 110 42 39 44 43 39 34 28 30 30 25 30 31 40 30 35 32 35 35 39 42 51 41
Wind_Direction
265 266 276 278 279 286 287 293 283 279 286 297 298 290 299 297 294 294 296 293 285 292 283 282 280 278 276 275 276 277 276 275 275 274 273 273 270 271 276 276 268 265 265
265 268 268 270 279 284 278 275 276 288 300 292 306 294 298 292 297 300 291 287 282 285 287 290 282 278 286 273 272 273 273 273 268 269 268 268 267 267 268 268 269 272 275
267 269 275 276 274 271 290 279 284 291 300 291 303 292 298 295 296 299 293 281 280 286 292 283 282 288 286 274 276 277 279 276 271 269 270 270 270 271 271 265 266 264 265
265 267 269 274 271 275 280 280 285 296 297 289 292 293 291 296 287 289 292 279 276 284 287 280 280 283 279 283 275 283 280 277 278 278 277 276 273 272 270 266 266 270 262
264 267 269 271 272 275 277 279 282 290 286 288 293 295 288 297 288 285 279 277 276 286 286 282 280 287 283 280 281 279 280 275 274 275 271 269 269 269 274 271 272 269 264
266 268 268 271 274 276 281 283 283 285 290 291 289 292 293 297 284 280 279 278 282 281 287 286 281 284 283 283 281 283 280 279 277 276 275 274 273 271 270 269 271 270 264
267 267 280 274 272 275 276 293 291 291 293 288 289 289 290 298 279 280 278 280 286 284 283 286 284 284 284 288 290 286 286 283 282 280 279 278 277 278 277 278 286 270 266
267 269 270 272 276 275 278 295 286 296 287 286 288 290 283 282 282 280 283 280 286 285 284 286 284 286 285 288 287 285 286 285 286 286 286 285 285 285 288 290 284 280 276
271 270 273 273 276 285 292 288 284 285 286 285 289 289 282 282 281 285 284 285 284 284 285 285 284 287 288 286 286 286 287 289 289 288 288 288 288 289 289 283 283 280 274
269 270 273 273 279 287 285 280 283 280 283 286 286 284 282 283 282 287 289 288 289 289 289 288 289 290 289 289 289 289 287 286 286 286 285 288 290 288 286 285 277 274 272
263 268 271 275 275 279 281 283 286 283 282 282 285 283 283 284 285 287 289 293 293 294 294 295 295 294 295 297 296 294 294 293 291 292 293 291 289 289 283 281 279 276 272
263 266 270 269 276 279 282 283 288 284 283 286 287 288 287 287 286 287 290 290 293 294 294 296 297 298 299 297 295 296 295 295 297 290 294 294 288 286 284 278 273 270 268
262 263 268 272 276 280 283 283 290 289 289 286 286 285 287 287 288 289 288 288 289 290 291 295 298 298 296 296 297 297 297 297 296 295 293 291 289 285 281 279 274 268 265
258 261 267 272 277 279 282 287 290 292 289 285 287 286 288 288 288 290 289 288 290 293 294 293 291 291 291 292 294 294 294 294 291 290 286 287 289 290 289 287 283 281 278
259 262 264 275 277 278 284 286 290 291 294 294 288 287 287 288 291 290 292 293 292 294 292 293 293 293 294 295 295 288 292 289 285 287 290 292 290 287 285 282 280 280 276
260 265 263 270 276 280 282 287 287 288 295 290 290 290 292 291 293 294 294 296 294 294 293 294 295 296 296 297 295 292 290 296 296 293 294 291 291 292 290 288 277 282 279
256 266 266 268 274 276 283 286 289 290 292 292 292 293 294 295 295 296 295 295 295 295 295 298 298 299 297 296 294 301 290 291 298 296 293 294 295 294 291 287 294 280 278
256 260 265 267 273 279 283 286 289 291 291 293 293 294 297 296 295 295 296 299 298 299 299 299 299 297 298 302 302 303 301 299 297 296 295 296 297 290 289 296 294 288 286
256 261 264 268 274 280 281 287 290 290 291 293 294 296 294 296 297 298 299 301 300 299 299 294 300 303 299 304 303 301 299 296 296 296 297 296 291 297 294 292 288 288 284
257 261 266 269 274 280 283 288 289 289 296 294 294 295 297 296 298 301 301 300 301 293 300 303 306 306 305 303 302 302 297 294 295 296 298 290 294 293 289 289 294 291 286
259 263 266 272 278 282 282 284 287 291 293 294 296 294 299 300 301 300 301 301 296 301 305 308 308 307 305 304 306 299 296 293 295 301 295 291 300 288 290 291 286 285 289
261 263 271 277 279 281 284 291 290 292 295 296 297 298 302 303 302 302 295 300 305 302 309 308 307 305 307 306 299 295 296 296 297 303 297 295 304 288 289 290 294 292 291
263 270 277 280 281 286 288 291 293 296 298 300 301 303 303 302 303 304 301 307 307 308 310 308 308 309 307 301 298 296 296 293 293 298 296 292 301 298 297 298 299 297 300
272 278 283 287 287 289 291 295 296 299 301 301 302 302 303 303 301 304 309 308 309 309 307 311 311 310 306 302 297 291 296 300 301 304 289 293 294 295 297 301 303 303 305
279 291 286 286 291 293 295 297 299 300 302 302 302 304 303 305 309 310 310 309 309 308 312 311 310 308 304 299 291 295 299 298 300 302 299 294 295 298 297 302 305 306 318
292 285 289 292 294 295 299 301 302 301 302 302 308 302 308 309 308 310 310 309 312 310 308 309 308 309 306 295 296 295 294 297 300 301 305 301 302 305 306 304 309 317 319